Het weer op Woensdrecht:2014/08/21 15:55 EHWO 211555Z AUTO 22007KT 9999 BKN060 OVC066 17/09 Q1014 BLU
Het weer op Amsterdam:2014/08/21 15:55 EHAM 211555Z 24014KT 200V260 9999 FEW040 17/08 Q1014 NOSIG

Menu promotie
· Startpagina
· Verslag FLY-IN 2009
· De vloot
· Kennismaken


Buien Radar


Picasa foto link
ACV externe fotolink


Inloggen voor leden
WelkomAnonymous!


Lid nummer    
Wachtwoord 
Code: Code
Type Code in
[Wachtwoord vergeten?]


 
Sorry, deze module is niet actief (acv_addon_4)

[ Ga terug ]
copyright (c) ACV 2006 - 2014

All logos and trademarks in this site are property of their respective owner. The comments are property of their posters, all the rest 2005 by me.
PHP-Nuke Copyright © 2005 by Francisco Burzi. This is free software, and you may redistribute it under the GPL. PHP-Nuke comes with absolutely no warranty, for details, see the license.
Pagina Rendering: 0.09 Seconden